Погода в Пушкинском

Россия / Оренбургская область     52°45′33″N   53°52′15″E
темп.,
°C
ветер,
м/с
пор.,
м/с
влажн.,
%
обл.,
%
осадки,
мм/ч
давл.,
гПа
погр.,
м
26 июля, пн
пн2623:00+15ссз411440 0.0 1020221
02:00+12сз22470 0.0 102118
05:00+10ссз22560 0.0 102223
08:00+14с35510 0.0 1022247
11:00+20с55350 0.0 10221435
14:00+23с44295 0.0 10222356
17:00+24ссз452736 0.0 10202734
20:00+22с113569 0.0 102025
27 июля, вт
вт2723:00+16ссз33425 0.0 102026
02:00+14с22505 0.0 102118
05:00+13сз12565 0.0 102010
08:00+17зсз22475 0.0 1020174
11:00+22зсз34364 0.0 10191534
14:00+25сз452984 0.0 10172874
17:00+25зсз553224 0.0 10161706
20:00+21зсз254881 0.0 1015156
28 июля, ср
ср2823:00+18з345594 0.0 101558
02:00+16сз39685 0.0 1015199
05:00+13сз34940 0.0 1015100
08:00+16с47715 0.0 1016360
11:00+21с464318 0.0 10161724
14:00+24ссз45325 0.0 10152438
17:00+25с55295 0.0 10142642
20:00+22ссв35382 0.0 1014251
29 июля, чт
чт2923:00+16сз11480 0.0 101511
02:00+15зюз11490 0.0 101411
05:00+14юз11505 0.0 101410
08:00+18ююз234295 0.0 1015123
11:00+25зюз4530100 0.0 10141154
14:00+27з6732100 0.0 10122492
17:00+26з0237100 0.1 1012761
20:00+17ссз4984100 0.6 1012217
30 июля, пт
пт3023:00+17юв2586100 1.0 1011132
02:00+17ююв3986100 1.4 1010317
05:00+16ю388698 1.5 1008161
08:00+19юз487375 0.0 1008339
11:00+24зюз696083 0.0 1008752
14:00+29з91236100 0.0 10062722
17:00+30зсз8113333 0.0 10062912
20:00+27зсз59411 0.0 1008765